period_start,C,m1,H,J0,J1,J2,J3,J4,J5,JA,JB,JC,JD,JJ,JK,JN,#
2014-11-29 00:04:24,0.11,5.03,0.00,20.15,24.65,27.84,4.93,27.09,1023.45,2040.99,1918.79,2184.22,2374.03,350.27,353.70,23.46,0000 0000 0000 0000 000000
2014-11-29 00:09:25,0.05,5.04,0.00,20.18,24.65,27.81,4.87,27.07,1023.45,2040.98,1918.06,2184.00,2373.94,349.92,353.36,23.49,0000 0000 0000 0000 000000
2014-11-29 00:14:27,0.07,5.04,0.00,20.19,24.67,27.83,4.89,26.99,1023.45,2040.98,1917.92,2183.81,2373.29,349.53,352.96,23.52,0000 0000 0000 0000 000000
2014-11-29 00:19:28,0.11,5.04,0.00,20.22,24.67,27.82,4.87,26.94,1023.45,2040.98,1917.20,2183.10,2373.00,350.20,353.08,23.55,0000 0000 0000 0000 000000
2014-11-29 00:24:28,0.01,5.04,0.00,20.22,24.68,27.83,4.87,27.17,1023.45,2040.98,1917.00,2183.00,2372.91,350.21,353.55,23.58,0000 0000 0000 0000 000000
2014-11-29 00:29:30,0.11,5.04,0.00,20.23,24.70,27.82,4.88,27.03,1023.45,2040.97,1916.53,2182.82,2372.15,350.09,353.38,23.61,0000 0000 0000 0000 000000
2014-11-29 00:34:31,0.07,5.05,0.00,20.25,24.70,27.88,4.81,27.03,1023.45,2040.96,1916.01,2182.11,2372.00,349.62,352.93,23.64,0000 0000 0000 0000 000000
2014-11-29 00:39:32,0.09,5.05,0.00,20.27,24.72,27.87,4.92,27.15,1023.46,2040.96,1915.56,2182.00,2371.46,349.85,353.19,23.67,0000 0000 0000 0000 000000
2014-11-29 00:44:34,0.07,5.05,0.00,20.27,24.72,27.88,4.88,27.07,1023.47,2040.96,1915.03,2181.68,2371.01,349.71,352.91,23.70,0000 0000 0000 0000 000000
2014-11-29 00:49:35,0.04,5.05,0.00,20.30,24.73,27.87,4.82,27.04,1023.48,2040.95,1914.91,2181.04,2370.94,349.80,352.95,23.73,0000 0000 0000 0000 000000
2014-11-29 00:54:36,0.10,5.06,0.00,20.32,24.75,27.89,4.89,27.07,1023.60,2040.95,1914.17,2180.99,2370.27,350.30,353.45,23.76,0000 0000 0000 0000 000000
2014-11-29 00:59:37,0.05,5.06,0.00,20.31,24.75,27.90,4.88,27.03,1023.83,2040.88,1913.98,2180.49,2370.00,349.61,352.81,23.78,0000 0000 0000 0000 000000
2014-11-29 01:04:38,0.07,5.06,0.00,20.30,24.77,27.92,4.86,27.06,1023.58,2040.77,1913.37,2180.01,2369.76,349.09,352.48,23.81,0000 0000 0000 0000 000000
2014-11-29 01:09:40,-0.01,5.06,0.00,20.32,24.77,27.91,4.88,27.14,1023.46,2040.58,1913.00,2179.96,2369.05,350.32,353.55,23.84,0000 0000 0000 0000 000000
2014-11-29 01:14:41,0.05,5.06,0.00,20.36,24.79,27.91,4.95,27.02,1023.60,2040.25,1912.57,2179.27,2368.94,349.97,353.20,23.87,0000 0000 0000 0000 000000
2014-11-29 01:19:42,0.06,5.06,0.00,20.36,24.80,27.94,4.99,27.04,1023.67,2040.15,1912.01,2178.99,2368.17,350.18,353.31,23.90,0000 0000 0000 0000 000000
2014-11-29 01:24:43,0.02,5.06,0.00,20.37,24.81,27.96,4.89,27.08,1023.85,2040.10,1911.76,2178.82,2368.00,350.53,353.85,23.93,0000 0000 0000 0000 000000
2014-11-29 01:29:45,0.11,5.07,0.00,20.38,24.82,27.95,4.89,27.07,1023.90,2040.04,1911.05,2178.11,2367.63,350.36,353.65,23.96,0000 0000 0000 0000 000000
2014-11-29 01:34:46,0.03,5.07,0.00,20.39,24.82,27.94,4.88,27.08,1023.92,2040.06,1910.91,2178.00,2367.04,350.19,353.46,23.99,0000 0000 0000 0000 000000
2014-11-29 01:39:47,0.12,5.07,0.00,20.38,24.84,27.99,4.85,27.24,1023.94,2040.04,1910.10,2177.47,2366.99,349.97,353.34,24.02,0000 0000 0000 0000 000000
2014-11-29 01:44:48,0.06,5.07,0.00,20.40,24.85,27.98,4.98,27.13,1023.94,2040.00,1909.82,2177.01,2366.36,350.39,353.65,24.05,0000 0000 0000 0000 000000
2014-11-29 01:49:49,0.06,5.08,0.00,20.42,24.86,28.00,4.90,27.09,1023.94,2040.01,1909.07,2176.92,2366.01,350.35,353.68,24.08,0000 0000 0000 0000 000000
2014-11-29 01:54:50,0.09,5.08,0.00,20.42,24.87,28.00,4.93,27.07,1023.94,2040.00,1908.97,2176.24,2365.74,350.37,353.66,24.11,0000 0000 0000 0000 000000
2014-11-29 01:59:52,0.09,5.08,0.00,20.44,24.87,28.03,4.91,27.07,1023.94,2040.00,1908.26,2176.00,2365.07,350.42,353.71,24.14,0000 0000 0000 0000 000000
2014-11-29 02:04:53,0.05,5.08,0.00,20.45,24.90,28.05,4.86,27.14,1023.94,2040.00,1907.99,2175.64,2364.94,349.93,353.14,24.16,0000 0000 0000 0000 000000
2014-11-29 02:09:54,0.13,5.09,0.00,20.46,24.90,28.04,4.92,27.07,1023.93,2040.00,1907.25,2175.02,2364.21,350.20,353.46,24.19,0000 0000 0000 0000 000000
2014-11-29 02:14:55,0.01,5.09,0.00,20.46,24.91,28.06,4.88,27.02,1023.93,2040.00,1906.92,2175.00,2363.99,349.86,353.15,24.22,0000 0000 0000 0000 000000
2014-11-29 02:19:57,0.12,5.09,0.00,20.48,24.92,28.06,4.87,27.03,1023.94,2040.00,1906.14,2174.58,2363.65,349.51,352.68,24.25,0000 0000 0000 0000 000000
2014-11-29 02:24:58,0.05,5.09,0.00,20.50,24.92,28.07,4.88,26.93,1023.94,2039.99,1905.99,2174.03,2363.05,349.65,352.95,24.28,0000 0000 0000 0000 000000
2014-11-29 02:29:59,0.05,5.09,0.00,20.51,24.94,28.09,4.89,26.98,1023.95,2039.99,1905.56,2173.99,2362.99,349.82,352.94,24.31,0000 0000 0000 0000 000000
2014-11-29 02:35:00,0.10,5.10,0.00,20.51,24.95,28.10,4.83,26.93,1023.96,2039.99,1905.02,2173.64,2362.48,349.84,353.07,24.34,0000 0000 0000 0000 000000
2014-11-29 02:40:02,0.08,5.10,0.00,20.52,24.96,28.11,4.79,27.05,1023.96,2039.99,1904.62,2173.03,2362.01,349.54,352.79,24.37,0000 0000 0000 0000 000000
2014-11-29 02:45:03,0.03,5.10,0.00,20.51,24.97,28.14,4.93,27.03,1023.98,2039.98,1904.05,2172.99,2361.86,350.31,353.46,24.40,0000 0000 0000 0000 000000
2014-11-29 02:50:04,0.08,5.10,0.00,20.53,24.97,28.13,4.90,27.13,1024.06,2039.98,1904.00,2172.59,2361.12,350.00,353.21,24.43,0000 0000 0000 0000 000000
2014-11-29 02:55:06,0.08,5.11,0.00,20.53,24.97,28.11,4.83,27.01,1024.18,2039.98,1903.45,2172.04,2361.00,349.95,353.00,24.46,0000 0000 0000 0000 000000
2014-11-29 03:00:07,0.04,5.11,0.00,20.57,25.00,28.16,4.82,26.90,1024.26,2039.96,1903.00,2171.99,2360.58,349.79,353.27,24.49,0000 0000 0000 0000 000000
2014-11-29 03:05:08,0.14,5.11,0.00,20.57,25.00,28.15,4.79,26.99,1024.35,2039.97,1902.41,2171.38,2360.02,350.15,353.20,24.52,0000 0000 0000 0000 000000
2014-11-29 03:10:09,0.02,5.11,0.00,20.58,25.02,28.15,4.86,26.93,1024.42,2039.94,1902.01,2171.01,2359.89,349.82,352.77,24.55,0000 0000 0000 0000 000000
2014-11-29 03:15:11,0.07,5.11,0.00,20.59,25.02,28.15,4.86,26.99,1024.43,2039.86,1901.62,2170.90,2359.14,349.87,352.99,24.58,0000 0000 0000 0000 000000
2014-11-29 03:20:12,0.07,5.12,0.00,20.59,25.03,28.18,5.01,27.11,1024.43,2039.75,1901.04,2170.16,2358.98,350.82,354.08,24.60,0000 0000 0000 0000 000000
2014-11-29 03:25:13,0.06,5.12,0.00,20.59,25.05,28.20,4.86,27.04,1024.43,2039.61,1900.74,2170.00,2358.41,350.29,353.49,24.63,0000 0000 0000 0000 000000
2014-11-29 03:30:15,0.05,5.12,0.00,20.62,25.05,28.22,4.78,26.97,1024.44,2039.62,1900.05,2169.86,2358.02,349.60,352.80,24.66,0000 0000 0000 0000 000000
2014-11-29 03:35:16,0.06,5.12,0.00,20.63,25.07,28.21,4.85,26.99,1024.50,2039.57,1899.98,2169.13,2357.97,350.12,353.46,24.69,0000 0000 0000 0000 000000
2014-11-29 03:40:17,0.02,5.12,0.00,20.64,25.07,28.20,4.83,27.16,1024.64,2039.34,1899.27,2169.00,2357.34,349.63,353.20,24.72,0000 0000 0000 0000 000000
2014-11-29 03:45:18,0.02,5.12,0.00,20.66,25.09,28.23,4.84,26.96,1024.89,2039.13,1898.99,2168.76,2357.00,349.69,352.86,24.75,0000 0000 0000 0000 000000
2014-11-29 03:50:20,0.10,5.13,0.00,20.67,25.10,28.25,4.84,26.98,1024.89,2039.08,1898.50,2168.08,2356.79,350.21,353.37,24.78,0000 0000 0000 0000 000000
2014-11-29 03:55:21,0.05,5.13,0.00,20.68,25.11,28.24,4.90,27.01,1024.92,2039.10,1898.01,2168.00,2356.08,350.28,353.73,24.81,0000 0000 0000 0000 000000
2014-11-29 04:00:22,0.07,5.13,0.00,20.69,25.12,28.26,4.92,27.05,1024.92,2039.06,1897.66,2167.71,2355.97,350.46,353.45,24.84,0000 0000 0000 0000 000000
2014-11-29 04:05:23,0.10,5.13,0.00,20.69,25.12,28.25,4.90,27.08,1024.93,2039.03,1897.02,2167.05,2355.36,350.20,353.48,24.87,0000 0000 0000 0000 000000
2014-11-29 04:10:24,0.02,5.13,0.00,20.70,25.14,28.27,4.89,27.07,1024.92,2039.02,1896.80,2167.00,2355.00,350.06,353.28,24.90,0000 0000 0000 0000 000000
2014-11-29 04:15:25,0.11,5.14,0.00,20.71,25.15,28.29,4.91,27.11,1024.92,2039.02,1896.07,2166.55,2354.84,350.00,353.42,24.93,0000 0000 0000 0000 000000
2014-11-29 04:20:27,0.06,5.14,0.00,20.73,25.16,28.32,4.87,27.09,1024.92,2039.00,1895.92,2166.03,2354.09,349.80,353.29,24.96,0000 0000 0000 0000 000000
2014-11-29 04:25:28,0.07,5.14,0.00,20.72,25.17,28.33,4.89,27.09,1024.92,2039.00,1895.13,2165.95,2353.95,349.94,353.23,24.99,0000 0000 0000 0000 000000
2014-11-29 04:30:29,0.13,5.14,0.00,20.72,25.17,28.35,4.87,27.13,1024.92,2039.00,1894.84,2165.21,2353.21,349.74,352.96,25.01,0000 0000 0000 0000 000000
2014-11-29 04:35:30,0.05,5.15,0.00,20.74,25.19,28.34,4.84,27.07,1024.93,2039.00,1894.10,2165.00,2352.98,350.05,353.24,25.04,0000 0000 0000 0000 000000
2014-11-29 04:40:32,0.13,5.15,0.00,20.74,25.20,28.35,4.88,27.07,1024.93,2038.98,1893.68,2164.56,2352.30,349.93,353.17,25.07,0000 0000 0000 0000 000000
2014-11-29 04:45:33,0.06,5.15,0.00,20.76,25.20,28.36,4.89,27.02,1024.93,2038.98,1893.03,2164.02,2352.00,350.16,353.32,25.10,0000 0000 0000 0000 000000
2014-11-29 04:50:34,0.04,5.15,0.00,20.78,25.22,28.37,4.92,27.04,1024.93,2038.97,1892.86,2163.98,2351.68,350.60,353.73,25.13,0000 0000 0000 0000 000000
2014-11-29 04:55:35,0.13,5.16,0.00,20.77,25.22,28.40,4.91,27.07,1024.95,2038.98,1892.08,2163.39,2351.06,349.74,353.00,25.16,0000 0000 0000 0000 000000
2014-11-29 05:00:36,0.03,5.16,0.00,20.78,25.23,28.42,4.90,27.13,1024.96,2038.96,1891.90,2163.01,2350.86,349.95,353.17,25.19,0000 0000 0000 0000 000000
2014-11-29 05:05:37,0.11,5.16,0.00,20.77,25.25,28.43,4.89,27.10,1024.96,2038.95,1891.11,2162.83,2350.08,349.93,353.44,25.22,0000 0000 0000 0000 000000
2014-11-29 05:10:39,0.07,5.16,0.00,20.77,25.25,28.43,4.87,27.02,1024.95,2038.95,1890.89,2162.09,2349.99,350.16,353.11,25.25,0000 0000 0000 0000 000000
2014-11-29 05:15:40,0.08,5.17,0.00,20.79,25.25,28.44,4.79,26.99,1024.96,2038.88,1890.08,2161.99,2349.32,349.52,352.71,25.28,0000 0000 0000 0000 000000
2014-11-29 05:20:41,0.06,5.17,0.00,20.78,25.27,28.47,4.89,26.94,1024.98,2038.79,1889.83,2161.48,2349.00,350.67,353.80,25.31,0000 0000 0000 0000 000000
2014-11-29 05:25:43,0.09,5.17,0.00,20.81,25.27,28.47,4.87,27.02,1025.03,2038.72,1889.11,2161.01,2348.65,349.74,352.95,25.34,0000 0000 0000 0000 000000
2014-11-29 05:30:44,-0.06,5.17,0.00,20.80,25.27,28.46,4.89,27.06,1025.00,2038.32,1888.91,2160.91,2348.02,349.95,353.13,25.37,0000 0000 0000 0000 000000
2014-11-29 05:35:44,0.15,5.17,0.00,20.79,25.28,28.45,4.79,27.02,1025.14,2038.32,1888.12,2160.16,2347.88,349.42,352.74,25.40,0000 0000 0000 0000 000000
2014-11-29 05:40:46,0.02,5.17,0.00,20.80,25.29,28.49,4.84,27.07,1025.24,2038.18,1887.96,2160.00,2347.10,350.17,353.31,25.42,0000 0000 0000 0000 000000
2014-11-29 05:45:47,0.07,5.18,0.00,20.81,25.30,28.48,4.93,26.96,1025.39,2038.26,1887.28,2159.88,2346.99,350.06,353.15,25.45,0000 0000 0000 0000 000000
2014-11-29 05:50:48,0.14,5.18,0.00,20.82,25.30,28.49,4.90,27.06,1025.38,2038.41,1886.95,2159.15,2346.72,350.45,353.47,25.48,0000 0000 0000 0000 000000
2014-11-29 05:55:49,0.02,5.18,0.00,20.80,25.32,28.49,4.92,26.93,1025.40,2038.21,1886.18,2158.99,2346.04,350.30,353.59,25.51,0000 0000 0000 0000 000000
2014-11-29 06:00:50,0.03,5.18,0.00,20.81,25.32,28.49,4.82,27.01,1025.40,2038.06,1885.99,2158.76,2345.96,349.50,353.02,25.54,0000 0000 0000 0000 000000
2014-11-29 06:05:51,0.14,5.19,0.00,20.80,25.32,28.50,4.91,26.96,1025.41,2038.08,1885.40,2158.13,2345.35,350.10,353.42,25.57,0000 0000 0000 0000 000000
2014-11-29 06:10:52,0.01,5.19,0.00,20.80,25.33,28.50,4.93,27.02,1025.41,2038.04,1885.00,2158.00,2345.00,350.11,353.26,25.60,0000 0000 0000 0000 000000
2014-11-29 06:15:54,0.13,5.19,0.00,20.81,25.34,28.53,4.86,27.03,1025.41,2038.02,1884.48,2157.63,2344.64,349.85,353.16,25.63,0000 0000 0000 0000 000000
2014-11-29 06:20:55,0.06,5.19,0.00,20.82,25.35,28.53,4.85,26.94,1025.43,2038.01,1884.01,2157.04,2344.03,349.73,353.03,25.66,0000 0000 0000 0000 000000
2014-11-29 06:25:56,0.04,5.19,0.00,20.83,25.35,28.55,4.87,27.01,1025.42,2038.01,1883.72,2156.99,2343.98,349.64,353.10,25.69,0000 0000 0000 0000 000000
2014-11-29 06:30:58,0.11,5.20,0.00,20.82,25.35,28.55,4.88,27.00,1025.42,2038.01,1883.04,2156.61,2343.30,350.01,353.20,25.72,0000 0000 0000 0000 000000
2014-11-29 06:35:59,0.05,5.20,0.00,20.82,25.36,28.54,4.88,26.92,1025.42,2038.01,1882.87,2156.06,2343.00,349.78,353.04,25.75,0000 0000 0000 0000 000000
2014-11-29 06:41:00,0.08,5.20,0.00,20.83,25.37,28.54,4.85,27.07,1025.42,2038.00,1882.07,2155.97,2342.65,349.97,353.24,25.78,0000 0000 0000 0000 000000
2014-11-29 06:46:01,0.07,5.20,0.00,20.84,25.37,28.58,4.85,26.90,1025.44,2038.00,1881.95,2155.56,2342.05,349.96,353.32,25.81,0000 0000 0000 0000 000000
2014-11-29 06:51:02,0.08,5.21,0.00,20.81,25.37,28.56,4.84,26.99,1025.51,2038.00,1881.23,2155.03,2341.97,350.07,353.33,25.83,0000 0000 0000 0000 000000
2014-11-29 06:56:04,0.05,5.21,0.00,20.81,25.37,28.54,4.82,27.02,1025.85,2038.00,1880.94,2154.95,2341.28,349.63,353.13,25.86,0000 0000 0000 0000 000000
2014-11-29 07:01:05,0.13,5.21,0.00,20.81,25.38,28.56,4.82,27.07,1025.87,2038.00,1880.18,2154.27,2341.00,350.26,353.45,25.89,0000 0000 0000 0000 000000
2014-11-29 07:06:07,0.03,5.21,0.00,20.82,25.39,28.58,4.88,27.01,1025.89,2038.00,1879.98,2154.01,2340.70,349.46,353.01,25.92,0000 0000 0000 0000 000000
2014-11-29 07:11:08,0.08,5.21,0.00,20.84,25.40,28.57,4.91,27.08,1025.89,2038.00,1879.37,2153.94,2340.03,350.05,353.49,25.95,0000 0000 0000 0000 000000
2014-11-29 07:16:09,0.07,5.22,0.00,20.82,25.40,28.57,4.91,27.13,1025.89,2038.00,1879.00,2153.25,2339.97,350.20,353.51,25.98,0000 0000 0000 0000 000000
2014-11-29 07:21:11,0.10,5.22,0.00,20.82,25.40,28.57,4.88,27.14,1025.91,2038.00,1878.41,2153.00,2339.23,349.64,353.11,26.01,0000 0000 0000 0000 000000
2014-11-29 07:26:12,0.03,5.22,0.00,20.81,25.40,28.59,4.89,27.06,1025.91,2038.00,1877.99,2152.81,2338.99,349.86,353.47,26.04,0000 0000 0000 0000 000000
2014-11-29 07:31:13,0.15,5.22,0.00,20.81,25.40,28.56,4.99,27.13,1025.99,2037.99,1877.39,2152.06,2338.47,350.56,354.11,26.07,0000 0000 0000 0000 000000
2014-11-29 07:36:14,0.02,5.23,0.00,20.79,25.40,28.59,4.94,27.19,1026.15,2037.99,1876.99,2151.99,2338.01,350.07,353.66,26.10,0000 0000 0000 0000 000000
2014-11-29 07:41:16,0.15,5.23,0.00,20.80,25.40,28.57,4.83,27.09,1026.33,2037.99,1876.29,2151.36,2337.73,350.05,353.79,26.13,0000 0000 0000 0000 000000
2014-11-29 07:46:17,0.04,5.23,0.00,20.80,25.40,28.58,4.96,27.07,1026.36,2037.99,1876.00,2151.02,2337.06,349.82,353.32,26.16,0000 0000 0000 0000 000000
2014-11-29 07:51:18,0.07,5.23,0.00,20.79,25.40,28.57,4.81,27.11,1026.38,2037.98,1875.46,2150.88,2336.97,349.75,353.58,26.19,0000 0000 0000 0000 000000
2014-11-29 07:56:19,0.11,5.24,0.00,20.78,25.40,28.57,4.88,27.03,1026.38,2037.98,1875.00,2150.13,2336.28,349.95,353.58,26.22,0000 0000 0000 0000 000000
2014-11-29 08:01:20,0.07,5.24,0.00,20.77,25.40,28.56,4.85,27.07,1026.38,2037.99,1874.50,2150.00,2336.00,349.88,353.25,26.24,0000 0000 0000 0000 000000
2014-11-29 08:06:22,0.08,5.24,0.00,20.75,25.40,28.57,4.85,27.02,1026.40,2037.99,1874.00,2149.69,2335.56,350.16,353.75,26.27,0000 0000 0000 0000 000000
2014-11-29 08:11:23,0.10,5.25,0.00,20.76,25.40,28.59,4.86,27.13,1026.40,2037.97,1873.51,2149.05,2335.01,349.85,353.68,26.30,0000 0000 0000 0000 000000
2014-11-29 08:16:24,0.03,5.25,0.00,20.76,25.40,28.56,4.80,27.00,1026.49,2037.99,1873.01,2148.97,2334.91,349.24,352.96,26.33,0000 0000 0000 0000 000000
2014-11-29 08:21:25,0.13,5.25,0.00,20.76,25.40,28.55,4.86,27.08,1026.74,2037.98,1872.67,2148.55,2334.13,349.99,353.75,26.36,0000 0000 0000 0000 000000
2014-11-29 08:26:27,0.05,5.25,0.00,20.73,25.40,28.57,4.88,27.03,1026.75,2037.98,1872.02,2148.03,2333.98,350.07,353.98,26.39,0000 0000 0000 0000 000000
2014-11-29 08:31:28,0.08,5.25,0.00,20.74,25.40,28.56,4.83,27.02,1026.68,2037.97,1871.63,2147.93,2333.34,349.64,353.47,26.42,0000 0000 0000 0000 000000
2014-11-29 08:36:30,0.10,5.26,0.00,20.74,25.40,28.56,4.87,27.05,1026.68,2037.97,1871.03,2147.27,2333.00,350.16,354.05,26.45,0000 0000 0000 0000 000000
2014-11-29 08:41:31,0.09,5.26,0.00,20.72,25.40,28.57,4.84,27.18,1026.76,2037.96,1870.46,2147.00,2332.59,349.70,353.54,26.48,0000 0000 0000 0000 000000
2014-11-29 08:46:31,0.06,5.26,0.00,20.72,25.40,28.54,4.83,27.11,1026.85,2037.96,1870.01,2146.76,2332.03,349.47,353.64,26.51,0000 0000 0000 0000 000000
2014-11-29 08:51:33,0.08,5.26,0.00,20.73,25.40,28.54,4.92,27.13,1026.87,2037.97,1869.69,2146.05,2331.90,350.04,353.71,26.54,0000 0000 0000 0000 000000
2014-11-29 08:56:34,0.07,5.27,0.00,20.69,25.40,28.54,4.92,27.05,1026.87,2037.97,1869.02,2146.00,2331.16,350.08,353.93,26.57,0000 0000 0000 0000 000000
2014-11-29 09:01:35,0.07,5.27,0.00,20.70,25.40,28.53,4.96,27.11,1026.87,2037.97,1868.77,2145.57,2330.99,350.06,354.01,26.60,0000 0000 0000 0000 000000
2014-11-29 09:06:36,0.11,5.27,0.00,20.70,25.40,28.52,4.83,27.05,1026.89,2037.97,1868.04,2145.02,2330.41,349.89,353.88,26.63,0000 0000 0000 0000 000000
2014-11-29 09:11:37,0.03,5.27,0.00,20.69,25.39,28.55,4.93,27.04,1026.89,2037.97,1867.79,2144.97,2330.01,349.61,353.67,26.65,0000 0000 0000 0000 000000
2014-11-29 09:16:38,0.11,5.28,0.00,20.69,25.39,28.52,4.98,27.18,1026.89,2037.98,1867.06,2144.39,2329.94,350.25,354.26,26.68,0000 0000 0000 0000 000000
2014-11-29 09:21:40,0.08,5.28,0.00,20.68,25.37,28.52,4.89,27.10,1026.88,2037.97,1866.76,2144.00,2329.15,350.05,354.13,26.71,0000 0000 0000 0000 000000
2014-11-29 09:26:41,0.05,5.28,0.00,20.69,25.37,28.52,4.85,27.05,1026.96,2037.96,1866.05,2143.84,2328.98,350.25,354.18,26.74,0000 0000 0000 0000 000000
2014-11-29 09:31:42,0.14,5.28,0.00,20.67,25.37,28.52,4.91,27.14,1026.97,2037.98,1865.73,2143.13,2328.39,350.20,354.09,26.77,0000 0000 0000 0000 000000
2014-11-29 09:36:43,0.04,5.29,0.00,20.66,25.37,28.53,4.94,27.21,1027.29,2037.98,1865.02,2142.97,2328.00,349.95,354.09,26.80,0000 0000 0000 0000 000000
2014-11-29 09:41:44,0.17,5.29,0.00,20.65,25.37,28.47,4.94,27.23,1027.35,2037.97,1864.36,2142.26,2327.48,350.25,354.41,26.83,0000 0000 0000 0000 000000
2014-11-29 09:46:45,0.02,5.29,0.00,20.63,25.36,28.49,4.88,27.07,1027.33,2037.97,1864.00,2142.01,2327.02,349.92,354.07,26.86,0000 0000 0000 0000 000000
2014-11-29 09:51:46,0.06,5.29,0.00,20.62,25.35,28.47,4.90,27.05,1027.25,2037.99,1863.53,2141.93,2326.94,350.16,354.26,26.89,0000 0000 0000 0000 000000
2014-11-29 09:56:48,0.13,5.30,0.00,20.59,25.35,28.46,4.82,27.07,1027.28,2037.99,1863.00,2141.18,2326.15,350.04,354.33,26.92,0000 0000 0000 0000 000000
2014-11-29 10:01:49,0.06,5.30,0.00,20.60,25.35,28.46,4.89,27.21,1027.31,2037.98,1862.43,2141.00,2325.99,350.14,354.38,26.95,0000 0000 0000 0000 000000
2014-11-29 10:06:50,0.10,5.30,0.00,20.60,25.35,28.42,4.88,27.10,1027.35,2037.98,1862.00,2140.63,2325.40,349.81,354.05,26.98,0000 0000 0000 0000 000000
2014-11-29 10:11:51,0.10,5.31,0.00,20.59,25.34,28.47,4.87,27.10,1027.36,2037.99,1861.39,2140.03,2325.00,349.71,353.88,27.01,0000 0000 0000 0000 000000
2014-11-29 10:16:52,0.05,5.31,0.00,20.57,25.32,28.44,4.90,27.21,1027.36,2037.98,1860.97,2139.94,2324.56,349.65,353.71,27.04,0000 0000 0000 0000 000000
2014-11-29 10:21:54,0.14,5.31,0.00,20.57,25.32,28.41,4.80,27.17,1027.36,2037.97,1860.23,2139.20,2324.02,349.29,353.55,27.06,0000 0000 0000 0000 000000
2014-11-29 10:26:55,0.02,5.31,0.00,20.56,25.32,28.42,4.91,27.18,1027.36,2037.99,1859.98,2139.00,2323.90,350.25,354.35,27.09,0000 0000 0000 0000 000000
2014-11-29 10:31:56,0.12,5.32,0.00,20.53,25.31,28.43,4.87,27.19,1027.36,2037.99,1859.25,2138.80,2323.14,349.98,354.15,27.12,0000 0000 0000 0000 000000
2014-11-29 10:36:57,0.06,5.32,0.00,20.54,25.30,28.44,4.85,27.20,1027.36,2037.98,1858.90,2138.09,2322.99,349.75,353.99,27.15,0000 0000 0000 0000 000000
2014-11-29 10:41:59,0.11,5.32,0.00,20.50,25.30,28.39,4.86,27.23,1027.39,2037.99,1858.08,2137.99,2322.21,349.95,354.14,27.18,0000 0000 0000 0000 000000
2014-11-29 10:47:00,0.07,5.32,0.00,20.49,25.29,28.40,4.94,27.12,1027.58,2037.99,1857.95,2137.46,2322.00,350.38,354.78,27.21,0000 0000 0000 0000 000000
2014-11-29 10:52:01,0.08,5.33,0.00,20.47,25.27,28.37,4.85,27.08,1027.56,2037.99,1857.21,2137.01,2321.77,349.95,354.40,27.24,0000 0000 0000 0000 000000
2014-11-29 10:57:03,0.05,5.33,0.00,20.47,25.27,28.37,4.87,27.32,1027.49,2037.99,1856.89,2136.99,2321.10,350.06,354.52,27.27,0000 0000 0000 0000 000000
2014-11-29 11:02:04,0.13,5.33,0.00,20.49,25.27,28.37,4.86,27.18,1027.45,2038.00,1856.10,2136.34,2320.96,349.72,354.12,27.30,0000 0000 0000 0000 000000
2014-11-29 11:07:05,0.09,5.33,0.00,20.46,25.25,28.34,4.92,27.11,1027.54,2038.00,1855.66,2136.00,2320.23,349.92,354.37,27.33,0000 0000 0000 0000 000000
2014-11-29 11:12:06,0.06,5.34,0.00,20.46,25.25,28.32,4.90,27.19,1027.82,2038.01,1855.03,2135.74,2319.99,349.89,354.49,27.36,0000 0000 0000 0000 000000
2014-11-29 11:17:07,0.09,5.34,0.00,20.41,25.24,28.32,4.94,27.20,1027.85,2038.01,1854.90,2135.05,2319.42,349.87,354.55,27.39,0000 0000 0000 0000 000000
2014-11-29 11:22:08,0.07,5.34,0.00,20.41,25.22,28.34,4.94,27.09,1027.85,2038.02,1854.09,2134.98,2319.02,350.41,355.10,27.42,0000 0000 0000 0000 000000
2014-11-29 11:27:09,0.12,5.34,0.00,20.39,25.22,28.30,4.86,27.04,1027.84,2038.01,1853.80,2134.30,2318.73,349.84,354.39,27.45,0000 0000 0000 0000 000000
2014-11-29 11:32:10,0.09,5.35,0.00,20.39,25.21,28.29,4.93,27.27,1027.85,2038.05,1853.05,2134.00,2318.03,350.44,355.13,27.47,0000 0000 0000 0000 000000
2014-11-29 11:37:12,0.09,5.35,0.00,20.38,25.20,28.28,4.90,27.28,1027.85,2038.06,1852.70,2133.73,2317.85,350.07,354.84,27.50,0000 0000 0000 0000 000000
2014-11-29 11:42:13,0.10,5.36,0.00,20.36,25.19,28.24,4.89,27.13,1027.85,2038.05,1852.01,2133.03,2317.06,350.05,354.75,27.53,0000 0000 0000 0000 000000
2014-11-29 11:47:14,0.06,5.36,0.00,20.34,25.17,28.25,4.81,27.13,1027.85,2038.05,1851.47,2132.95,2316.89,349.21,353.92,27.56,0000 0000 0000 0000 000000
2014-11-29 11:52:15,0.14,5.36,0.00,20.33,25.17,28.23,4.88,27.23,1027.85,2038.13,1850.97,2132.23,2316.13,349.54,354.15,27.59,0000 0000 0000 0000 000000
2014-11-29 11:57:17,0.13,5.36,0.00,20.30,25.15,28.24,4.86,27.18,1027.85,2038.30,1850.25,2132.00,2315.99,350.13,355.09,27.62,0000 0000 0000 0000 000000
2014-11-29 12:02:18,0.13,5.37,0.00,20.28,25.15,28.22,4.88,27.14,1027.85,2038.80,1849.99,2131.90,2315.62,350.26,354.97,27.65,0000 0000 0000 0000 000000
2014-11-29 12:07:19,0.16,5.37,0.00,20.27,25.13,28.15,4.92,27.17,1027.85,2038.93,1849.55,2131.20,2315.03,349.95,354.76,27.68,0000 0000 0000 0000 000000
2014-11-29 12:12:20,0.02,5.38,0.00,20.25,25.12,28.18,4.90,27.22,1027.85,2038.94,1849.00,2131.00,2314.87,350.12,354.87,27.71,0000 0000 0000 0000 000000
2014-11-29 12:17:21,0.16,5.38,0.00,20.23,25.11,28.15,4.91,27.15,1027.85,2038.97,1848.28,2130.60,2314.09,349.82,354.88,27.74,0000 0000 0000 0000 000000
2014-11-29 12:22:23,0.04,5.38,0.00,20.21,25.10,28.16,4.92,27.13,1027.85,2038.96,1847.99,2130.02,2313.96,349.96,354.74,27.77,0000 0000 0000 0000 000000
2014-11-29 12:27:24,0.10,5.38,0.00,20.22,25.08,28.13,4.99,27.13,1027.86,2038.97,1847.32,2129.94,2313.26,350.63,355.50,27.80,0000 0000 0000 0000 000000
2014-11-29 12:32:25,0.09,5.39,0.00,20.19,25.07,28.12,4.87,27.10,1027.86,2038.97,1846.93,2129.22,2312.99,349.52,354.56,27.83,0000 0000 0000 0000 000000
2014-11-29 12:37:26,0.11,5.39,0.00,20.17,25.05,28.12,4.89,27.24,1027.85,2038.97,1846.15,2129.00,2312.47,349.68,354.41,27.86,0000 0000 0000 0000 000000
2014-11-29 12:42:27,0.07,5.39,0.00,20.16,25.05,28.08,4.92,27.32,1027.85,2038.99,1845.80,2128.69,2312.01,349.62,354.68,27.88,0000 0000 0000 0000 000000
2014-11-29 12:47:29,0.10,5.40,0.00,20.16,25.02,28.09,4.93,27.29,1027.85,2038.99,1845.06,2128.07,2311.73,349.98,355.04,27.91,0000 0000 0000 0000 000000
2014-11-29 12:52:30,0.07,5.40,0.00,20.14,25.02,28.09,4.90,27.22,1027.87,2038.99,1844.58,2127.96,2311.06,349.81,354.81,27.94,0000 0000 0000 0000 000000
2014-11-29 12:57:31,0.10,5.40,0.00,20.12,25.00,28.05,4.79,27.19,1027.90,2038.99,1844.01,2127.23,2310.86,349.27,354.01,27.97,0000 0000 0000 0000 000000
2014-11-29 13:02:32,0.10,5.40,0.00,20.09,24.99,28.02,4.91,27.21,1028.05,2039.01,1843.55,2127.00,2310.11,350.09,354.96,28.00,0000 0000 0000 0000 000000